Tracking 23762 objects as of 20-Oct-2021
HD Live streaming from Space Station
objects crossing your sky now

SL-12 R/B(2)

Track SL-12 R/B(2) now!


NORAD ID: 23845
Int'l Code: 1996-021D
Perigee: 11,873.1 km
Apogee: 36,050.1 km
Inclination: 8.3 °
Period: 876.2 minutes
Semi major axis: 30332 km
RCS: 34.7717 m2 (large)
Launch date: April 8, 1996
Source: Commonwealth of Independent States (former USSR) (CIS)
Launch site: TYURATAM MISSILE AND SPACE COMPLEX (TTMTR)

Note: This is a ROCKET BODY
aabbcc
Your satellite tracking list
Your tracking list is empty




NASA's NSSDC Master Catalog

Two Line Element Set (TLE):
1 23845U 96021D   21292.50506713 -.00000176  00000-0  00000-0 0  9998
2 23845   8.3496 333.9877 3985319  69.4111  60.8610  1.64338524153235
Source of the keplerian elements: AFSPC